,,PA_Meas_PMT16A,,PR_Meas_QMR101_102,,RH_Meas_QMH101,,SR_Meas_QMS101,,TA_Meas_QMH101,,GenWind,,GenWind,
time,status,PA,status,PR,status,RH,status,SR,status,TA,status,DirAvg,status,SpdAvg,
2013-08-21, 00:00:05,VALID,917.923,VALID,0,VALID,96.9089,VALID,0,VALID,19.3323,VALID,134,VALID,0,
2013-08-21, 00:01:05,VALID,917.921,VALID,0,VALID,96.9241,VALID,0,VALID,19.3323,VALID,142,VALID,0,
2013-08-21, 00:02:05,VALID,917.905,VALID,0,VALID,96.9241,VALID,0,VALID,19.3323,VALID,133,VALID,0,
2013-08-21, 00:03:05,VALID,917.895,VALID,0,VALID,96.9241,VALID,0,VALID,19.3128,VALID,144,VALID,0,
2013-08-21, 00:04:05,VALID,917.919,VALID,0,VALID,96.9165,VALID,0,VALID,19.2933,VALID,120,VALID,0,
2013-08-21, 00:05:05,VALID,917.905,VALID,0,VALID,96.9012,VALID,0,VALID,19.2738,VALID,123,VALID,0,
2013-08-21, 00:06:05,VALID,917.904,VALID,0,VALID,96.8936,VALID,0,VALID,19.2738,VALID,98,VALID,0,
2013-08-21, 00:07:05,VALID,917.899,VALID,0,VALID,96.9012,VALID,0,VALID,19.2753,VALID,119,VALID,0,
2013-08-21, 00:08:05,VALID,917.894,VALID,0,VALID,96.8936,VALID,0.107441,VALID,19.2543,VALID,135,VALID,0,
2013-08-21, 00:09:05,VALID,917.842,VALID,0,VALID,96.886,VALID,0,VALID,19.2543,VALID,150,VALID,0,
2013-08-21, 00:10:05,VALID,917.814,VALID,0,VALID,96.8936,VALID,0,VALID,19.2738,VALID,149,VALID,0,
2013-08-21, 00:11:05,VALID,917.805,VALID,0,VALID,96.8936,VALID,0,VALID,19.2543,VALID,157,VALID,0,
2013-08-21, 00:12:05,VALID,917.816,VALID,0,VALID,96.8936,VALID,0.107441,VALID,19.2738,VALID,161,VALID,0,
2013-08-21, 00:13:05,VALID,917.798,VALID,0,VALID,96.886,VALID,0.107441,VALID,19.2738,VALID,138,VALID,0,
2013-08-21, 00:14:05,VALID,917.773,VALID,0,VALID,96.8936,VALID,0,VALID,19.2738,VALID,163,VALID,0,
2013-08-21, 00:15:05,VALID,917.739,VALID,0,VALID,96.886,VALID,0.107441,VALID,19.2723,VALID,150,VALID,0,
2013-08-21, 00:16:05,VALID,917.734,VALID,0,VALID,96.886,VALID,0.107441,VALID,19.2738,VALID,143,VALID,0,
2013-08-21, 00:17:05,VALID,917.71,VALID,0,VALID,96.8707,VALID,0.107441,VALID,19.2738,VALID,142,VALID,0,
2013-08-21, 00:18:05,VALID,917.705,VALID,0,VALID,96.8631,VALID,0,VALID,19.2738,VALID,136,VALID,0,
2013-08-21, 00:19:05,VALID,917.722,VALID,0,VALID,96.8707,VALID,0,VALID,19.2543,VALID,131,VALID,0,
2013-08-21, 00:20:05,VALID,917.699,VALID,0,VALID,96.8784,VALID,0.107441,VALID,19.2543,VALID,139,VALID,0,
2013-08-21, 00:21:05,VALID,917.689,VALID,0,VALID,96.8707,VALID,0.107441,VALID,19.2543,VALID,137,VALID,0,
2013-08-21, 00:22:05,VALID,917.692,VALID,0,VALID,96.886,VALID,0,VALID,19.2543,VALID,163,VALID,0,
2013-08-21, 00:23:05,VALID,917.684,VALID,0,VALID,96.8784,VALID,0,VALID,19.2753,VALID,149,VALID,0,
2013-08-21, 00:24:05,VALID,917.674,VALID,0,VALID,96.886,VALID,0,VALID,19.2558,VALID,141,VALID,0,
2013-08-21, 00:25:05,VALID,917.678,VALID,0,VALID,96.9012,VALID,0,VALID,19.2558,VALID,130,VALID,0,
2013-08-21, 00:26:05,VALID,917.659,VALID,0,VALID,96.8784,VALID,0,VALID,19.2558,VALID,130,VALID,0,
2013-08-21, 00:27:05,VALID,917.649,VALID,0,VALID,96.8936,VALID,0,VALID,19.2558,VALID,112,VALID,0,
2013-08-21, 00:28:05,VALID,917.639,VALID,0,VALID,96.886,VALID,0,VALID,19.2558,VALID,145,VALID,0,
2013-08-21, 00:29:05,VALID,917.651,VALID,0,VALID,96.8936,VALID,0,VALID,19.2558,VALID,129,VALID,0,
2013-08-21, 00:30:05,VALID,917.649,VALID,0,VALID,96.9012,VALID,0,VALID,19.2363,VALID,133,VALID,0,
2013-08-21, 00:31:05,VALID,917.666,VALID,0,VALID,96.886,VALID,0,VALID,19.2363,VALID,126,VALID,0,
2013-08-21, 00:32:05,VALID,917.646,VALID,0,VALID,96.886,VALID,0,VALID,19.2558,VALID,145,VALID,0,
2013-08-21, 00:33:05,VALID,917.636,VALID,0,VALID,96.8936,VALID,0,VALID,19.2558,VALID,148,VALID,0,
2013-08-21, 00:34:05,VALID,917.623,VALID,0,VALID,96.9012,VALID,0,VALID,19.2363,VALID,161,VALID,0,
2013-08-21, 00:35:05,VALID,917.601,VALID,0,VALID,96.8784,VALID,0,VALID,19.2348,VALID,168,VALID,0,
2013-08-21, 00:36:05,VALID,917.575,VALID,0,VALID,96.9012,VALID,0,VALID,19.2558,VALID,173,VALID,0,
2013-08-21, 00:37:05,VALID,917.557,VALID,0,VALID,96.9241,VALID,0,VALID,19.2348,VALID,145,VALID,0,
2013-08-21, 00:38:05,VALID,917.56,VALID,0,VALID,96.9089,VALID,0,VALID,19.2348,VALID,161,VALID,0,
2013-08-21, 00:39:05,VALID,917.563,VALID,0,VALID,96.9012,VALID,0.107441,VALID,19.2348,VALID,177,VALID,0,
2013-08-21, 00:40:05,VALID,917.551,VALID,0,VALID,96.9012,VALID,0.107441,VALID,19.2153,VALID,176,VALID,0,
2013-08-21, 00:41:05,VALID,917.516,VALID,0,VALID,96.8936,VALID,0,VALID,19.2168,VALID,161,VALID,0,
2013-08-21, 00:42:05,VALID,917.52,VALID,0,VALID,96.9165,VALID,0,VALID,19.1958,VALID,181,VALID,0,
2013-08-21, 00:43:05,VALID,917.497,VALID,0,VALID,96.9241,VALID,0,VALID,19.1958,VALID,141,VALID,0,
2013-08-21, 00:44:05,VALID,917.482,VALID,0,VALID,96.9089,VALID,0.107441,VALID,19.1763,VALID,167,VALID,0,
2013-08-21, 00:45:05,VALID,917.47,VALID,0,VALID,96.9317,VALID,0,VALID,19.1763,VALID,155,VALID,0,
2013-08-21, 00:46:05,VALID,917.472,VALID,0,VALID,96.9317,VALID,0.107441,VALID,19.1763,VALID,133,VALID,0,
2013-08-21, 00:47:05,VALID,917.444,VALID,0,VALID,96.9394,VALID,0.107441,VALID,19.1763,VALID,162,VALID,0,
2013-08-21, 00:48:05,VALID,917.451,VALID,0,VALID,96.9241,VALID,0,VALID,19.1568,VALID,167,VALID,0,
2013-08-21, 00:49:05,VALID,917.448,VALID,0,VALID,96.9241,VALID,0.107441,VALID,19.1373,VALID,123,VALID,0,
2013-08-21, 00:50:05,VALID,917.445,VALID,0,VALID,96.9317,VALID,0.107441,VALID,19.1568,VALID,158,VALID,0,
2013-08-21, 00:51:05,VALID,917.419,VALID,0,VALID,96.9165,VALID,0.107441,VALID,19.1373,VALID,152,VALID,0,
2013-08-21, 00:52:05,VALID,917.409,VALID,0,VALID,96.9165,VALID,0.107441,VALID,19.1373,VALID,165,VALID,0,
2013-08-21, 00:53:05,VALID,917.398,VALID,0,VALID,96.947,VALID,0,VALID,19.1402,VALID,173,VALID,0,
2013-08-21, 00:54:05,VALID,917.386,VALID,0,VALID,96.9241,VALID,0,VALID,19.0998,VALID,151,VALID,0,
2013-08-21, 00:55:05,VALID,917.379,VALID,0,VALID,96.947,VALID,0,VALID,19.1402,VALID,172,VALID,0,
2013-08-21, 00:56:05,VALID,917.346,VALID,0,VALID,96.9241,VALID,0,VALID,19.1207,VALID,161,VALID,0,
2013-08-21, 00:57:05,VALID,917.34,VALID,0,VALID,96.9241,VALID,0,VALID,19.1207,VALID,175,VALID,0,
2013-08-21, 00:58:05,VALID,917.352,VALID,0,VALID,96.9241,VALID,0,VALID,19.1207,VALID,184,VALID,0,
2013-08-21, 00:59:05,VALID,917.368,VALID,0,VALID,96.9317,VALID,0,VALID,19.0998,VALID,150,VALID,0,
2013-08-21, 01:00:05,VALID,917.327,VALID,0,VALID,96.9546,VALID,0,VALID,19.0998,VALID,144,VALID,0,
2013-08-21, 01:01:05,VALID,917.371,VALID,0,VALID,96.947,VALID,0,VALID,19.1207,VALID,158,VALID,0,
2013-08-21, 01:02:05,VALID,917.37,VALID,0,VALID,96.9317,VALID,0,VALID,19.0803,VALID,181,VALID,0,
2013-08-21, 01:03:05,VALID,917.338,VALID,0,VALID,96.9394,VALID,0,VALID,19.0803,VALID,178,VALID,0,
2013-08-21, 01:04:05,VALID,917.346,VALID,0,VALID,96.9317,VALID,0,VALID,19.0803,VALID,177,VALID,0,
2013-08-21, 01:05:05,VALID,917.334,VALID,0,VALID,96.9394,VALID,0,VALID,19.0803,VALID,191,VALID,0,
2013-08-21, 01:06:05,VALID,917.322,VALID,0,VALID,96.9394,VALID,0,VALID,19.0803,VALID,204,VALID,0,
2013-08-21, 01:07:05,VALID,917.346,VALID,0,VALID,96.947,VALID,0,VALID,19.0608,VALID,180,VALID,0,
2013-08-21, 01:08:05,VALID,917.348,VALID,0,VALID,96.9317,VALID,0,VALID,19.0593,VALID,152,VALID,0,
2013-08-21, 01:09:05,VALID,917.334,VALID,0,VALID,96.947,VALID,0,VALID,19.0593,VALID,174,VALID,0,
2013-08-21, 01:10:05,VALID,917.313,VALID,0,VALID,96.9317,VALID,0,VALID,19.0593,VALID,183,VALID,0,
2013-08-21, 01:11:05,VALID,917.303,VALID,0,VALID,96.9241,VALID,0,VALID,19.0593,VALID,167,VALID,0,
2013-08-21, 01:12:05,VALID,917.299,VALID,0,VALID,96.9317,VALID,0,VALID,19.0413,VALID,176,VALID,0,
2013-08-21, 01:13:05,VALID,917.308,VALID,0,VALID,96.9165,VALID,0,VALID,19.0398,VALID,169,VALID,0,
2013-08-21, 01:14:05,VALID,917.28,VALID,0,VALID,96.9089,VALID,0.107441,VALID,19.0203,VALID,177,VALID,0,
2013-08-21, 01:15:05,VALID,917.292,VALID,0,VALID,96.9317,VALID,0,VALID,19.0203,VALID,154,VALID,0,
2013-08-21, 01:16:05,VALID,917.299,VALID,0,VALID,96.9089,VALID,0,VALID,19.0023,VALID,165,VALID,0,
2013-08-21, 01:17:05,VALID,917.24,VALID,0,VALID,96.9089,VALID,0,VALID,19.0008,VALID,159,VALID,0,
2013-08-21, 01:18:05,VALID,917.233,VALID,0,VALID,96.9012,VALID,0,VALID,19.0008,VALID,146,VALID,0,
2013-08-21, 01:19:05,VALID,917.221,VALID,0,VALID,96.8936,VALID,0,VALID,19.0008,VALID,132,VALID,0,
2013-08-21, 01:20:05,VALID,917.224,VALID,0,VALID,96.886,VALID,0,VALID,19.0008,VALID,164,VALID,0,
2013-08-21, 01:21:05,VALID,917.199,VALID,0,VALID,96.886,VALID,0.107441,VALID,19.0203,VALID,146,VALID,0,
2013-08-21, 01:22:05,VALID,917.179,VALID,0,VALID,96.8784,VALID,0,VALID,19.0008,VALID,129,VALID,0,
2013-08-21, 01:23:05,VALID,917.174,VALID,0,VALID,96.8707,VALID,0,VALID,19.0218,VALID,169,VALID,0,
2013-08-21, 01:24:05,VALID,917.18,VALID,0,VALID,96.8707,VALID,0,VALID,19.0218,VALID,128,VALID,0,
2013-08-21, 01:25:05,VALID,917.144,VALID,0,VALID,96.8555,VALID,0,VALID,19.0413,VALID,124,VALID,0,
2013-08-21, 01:26:05,VALID,917.141,VALID,0,VALID,96.8631,VALID,0,VALID,19.0413,VALID,178,VALID,0,
2013-08-21, 01:27:05,VALID,917.113,VALID,0,VALID,96.8631,VALID,0,VALID,19.0413,VALID,170,VALID,0,
2013-08-21, 01:28:05,VALID,917.123,VALID,0,VALID,96.8555,VALID,0,VALID,19.0413,VALID,127,VALID,0,
2013-08-21, 01:29:05,VALID,917.082,VALID,0,VALID,96.8403,VALID,0,VALID,19.0608,VALID,155,VALID,0,
2013-08-21, 01:30:05,VALID,917.093,VALID,0,VALID,96.8555,VALID,0,VALID,19.0622,VALID,174,VALID,0,
2013-08-21, 01:31:05,VALID,917.065,VALID,0,VALID,96.8174,VALID,0,VALID,19.0413,VALID,180,VALID,0,
2013-08-21, 01:32:05,VALID,917.072,VALID,0,VALID,96.825,VALID,0,VALID,19.0413,VALID,188,VALID,0,
2013-08-21, 01:33:05,VALID,917.054,VALID,0,VALID,96.8098,VALID,0,VALID,19.0413,VALID,183,VALID,0,
2013-08-21, 01:34:05,VALID,917.042,VALID,0,VALID,96.8098,VALID,0,VALID,19.0398,VALID,124,VALID,0,
2013-08-21, 01:35:05,VALID,917.047,VALID,0,VALID,96.7945,VALID,0,VALID,19.0413,VALID,192,VALID,0,
2013-08-21, 01:36:05,VALID,917.062,VALID,0,VALID,96.7869,VALID,0,VALID,19.0413,VALID,146,VALID,0,
2013-08-21, 01:37:05,VALID,917.029,VALID,0,VALID,96.7869,VALID,0,VALID,19.0413,VALID,151,VALID,0,
2013-08-21, 01:38:05,VALID,917.041,VALID,0,VALID,96.7564,VALID,0,VALID,19.0413,VALID,131,VALID,0,
2013-08-21, 01:39:05,VALID,917.031,VALID,0,VALID,96.764,VALID,0,VALID,19.0413,VALID,126,VALID,0,
2013-08-21, 01:40:04,VALID,917.005,VALID,0,VALID,96.7411,VALID,0,VALID,19.0427,VALID,155,VALID,0,
2013-08-21, 01:41:04,VALID,917.011,VALID,0,VALID,96.7107,VALID,0,VALID,19.0622,VALID,159,VALID,0,
2013-08-21, 01:42:04,VALID,916.996,VALID,0,VALID,96.703,VALID,0,VALID,19.0622,VALID,144,VALID,0,
2013-08-21, 01:43:04,VALID,916.997,VALID,0,VALID,96.6878,VALID,0,VALID,19.0413,VALID,160,VALID,0,
2013-08-21, 01:44:04,VALID,916.967,VALID,0,VALID,96.6725,VALID,0,VALID,19.0413,VALID,145,VALID,0,
2013-08-21, 01:45:04,VALID,916.973,VALID,0,VALID,96.6573,VALID,0,VALID,19.0608,VALID,146,VALID,0,
2013-08-21, 01:46:04,VALID,916.976,VALID,0,VALID,96.642,VALID,0,VALID,19.0817,VALID,129,VALID,0,
2013-08-21, 01:47:04,VALID,916.961,VALID,0,VALID,96.6115,VALID,0,VALID,19.0608,VALID,134,VALID,0,
2013-08-21, 01:48:04,VALID,916.963,VALID,0,VALID,96.5734,VALID,0,VALID,19.0817,VALID,115,VALID,0,
2013-08-21, 01:49:04,VALID,916.968,VALID,0,VALID,96.5582,VALID,0,VALID,19.0413,VALID,134,VALID,0,
2013-08-21, 01:50:04,VALID,916.949,VALID,0,VALID,96.5429,VALID,0,VALID,19.0413,VALID,120,VALID,0,
2013-08-21, 01:51:04,VALID,916.953,VALID,0,VALID,96.5277,VALID,0,VALID,19.0413,VALID,123,VALID,0,
2013-08-21, 01:52:04,VALID,916.971,VALID,0,VALID,96.5048,VALID,0,VALID,19.0023,VALID,122,VALID,0,
2013-08-21, 01:53:04,VALID,916.966,VALID,0,VALID,96.4819,VALID,0,VALID,18.9828,VALID,134,VALID,0,
2013-08-21, 01:54:04,VALID,916.944,VALID,0,VALID,96.4515,VALID,0,VALID,18.9828,VALID,110,VALID,0,
2013-08-21, 01:55:04,VALID,916.921,VALID,0,VALID,96.4286,VALID,0,VALID,18.9229,VALID,105,VALID,0,
2013-08-21, 01:56:04,VALID,916.927,VALID,0,VALID,96.4057,VALID,0,VALID,18.9243,VALID,139,VALID,0,
2013-08-21, 01:57:04,VALID,916.942,VALID,0,VALID,96.3524,VALID,0,VALID,18.8839,VALID,149,VALID,0,
2013-08-21, 01:58:04,VALID,916.905,VALID,0,VALID,96.3524,VALID,0,VALID,18.8839,VALID,140,VALID,0,
2013-08-21, 01:59:04,VALID,916.86,VALID,0,VALID,96.3524,VALID,0,VALID,18.9034,VALID,185,VALID,0,
2013-08-21, 02:00:04,VALID,916.828,VALID,0,VALID,96.3142,VALID,0,VALID,18.9048,VALID,148,VALID,0,
2013-08-21, 02:01:04,VALID,916.814,VALID,0,VALID,96.2914,VALID,0,VALID,18.9048,VALID,147,VALID,0,
2013-08-21, 02:02:04,VALID,916.781,VALID,0,VALID,96.2609,VALID,0,VALID,18.9048,VALID,147,VALID,0,
2013-08-21, 02:03:04,VALID,916.772,VALID,0,VALID,96.2609,VALID,0,VALID,18.9048,VALID,140,VALID,0,
2013-08-21, 02:04:04,VALID,916.787,VALID,0,VALID,96.238,VALID,0,VALID,18.8839,VALID,157,VALID,0,
2013-08-21, 02:05:04,VALID,916.759,VALID,0,VALID,96.2075,VALID,0,VALID,18.8853,VALID,126,VALID,0,
2013-08-21, 02:06:04,VALID,916.788,VALID,0,VALID,96.1846,VALID,0,VALID,18.8658,VALID,138,VALID,0,
2013-08-21, 02:07:04,VALID,916.812,VALID,0,VALID,96.1541,VALID,0,VALID,18.8658,VALID,108,VALID,0,
2013-08-21, 02:08:04,VALID,916.787,VALID,0,VALID,96.1465,VALID,0,VALID,18.8644,VALID,141,VALID,0,
2013-08-21, 02:09:04,VALID,916.786,VALID,0,VALID,96.1618,VALID,0,VALID,18.8449,VALID,178,VALID,0,
2013-08-21, 02:10:04,VALID,916.805,VALID,0,VALID,96.1236,VALID,0,VALID,18.8449,VALID,139,VALID,0,
2013-08-21, 02:11:04,VALID,916.804,VALID,0,VALID,96.1084,VALID,0,VALID,18.8658,VALID,134,VALID,0,
2013-08-21, 02:12:04,VALID,916.769,VALID,0,VALID,96.116,VALID,0,VALID,18.8658,VALID,139,VALID,0,
2013-08-21, 02:13:04,VALID,916.785,VALID,0,VALID,96.0779,VALID,0,VALID,18.8853,VALID,132,VALID,0,
2013-08-21, 02:14:04,VALID,916.771,VALID,0,VALID,96.0703,VALID,0,VALID,18.8449,VALID,134,VALID,0,
2013-08-21, 02:15:04,VALID,916.771,VALID,0,VALID,96.0627,VALID,0,VALID,18.8644,VALID,136,VALID,0,
2013-08-21, 02:16:04,VALID,916.775,VALID,0,VALID,96.0245,VALID,0,VALID,18.8463,VALID,146,VALID,0,
2013-08-21, 02:17:04,VALID,916.734,VALID,0,VALID,95.9941,VALID,0,VALID,18.8254,VALID,152,VALID,0,
2013-08-21, 02:18:04,VALID,916.725,VALID,0,VALID,95.9559,VALID,0,VALID,18.8254,VALID,134,VALID,0,
2013-08-21, 02:19:04,VALID,916.694,VALID,0,VALID,95.9254,VALID,0,VALID,18.8254,VALID,145,VALID,0,
2013-08-21, 02:20:04,VALID,916.667,VALID,0,VALID,95.9102,VALID,0,VALID,18.8268,VALID,161,VALID,0,
2013-08-21, 02:21:04,VALID,916.674,VALID,0,VALID,95.8645,VALID,0,VALID,18.8463,VALID,137,VALID,0,
2013-08-21, 02:22:04,VALID,916.654,VALID,0,VALID,95.8416,VALID,0,VALID,18.8268,VALID,127,VALID,0,
2013-08-21, 02:23:04,VALID,916.622,VALID,0,VALID,95.8035,VALID,0,VALID,18.8268,VALID,148,VALID,0,
2013-08-21, 02:24:04,VALID,916.643,VALID,0,VALID,95.7654,VALID,0,VALID,18.7864,VALID,122,VALID,0,
2013-08-21, 02:25:04,VALID,916.608,VALID,0,VALID,95.7196,VALID,0,VALID,18.7669,VALID,136,VALID,0,
2013-08-21, 02:26:04,VALID,916.642,VALID,0,VALID,95.6891,VALID,0,VALID,18.7683,VALID,127,VALID,0,
2013-08-21, 02:27:04,VALID,916.627,VALID,0,VALID,95.6739,VALID,0,VALID,18.7683,VALID,121,VALID,0,
2013-08-21, 02:28:04,VALID,916.63,VALID,0,VALID,95.651,VALID,0,VALID,18.7669,VALID,126,VALID,0,
2013-08-21, 02:29:04,VALID,916.593,VALID,0,VALID,95.6205,VALID,0,VALID,18.7474,VALID,135,VALID,0,
2013-08-21, 02:30:04,VALID,916.595,VALID,0,VALID,95.5976,VALID,0,VALID,18.7488,VALID,135,VALID,0,
2013-08-21, 02:31:04,VALID,916.589,VALID,0,VALID,95.5595,VALID,0,VALID,18.7488,VALID,107,VALID,0,
2013-08-21, 02:32:04,VALID,916.549,VALID,0,VALID,95.4985,VALID,0,VALID,18.7098,VALID,121,VALID,0,
2013-08-21, 02:33:04,VALID,916.557,VALID,0,VALID,95.4985,VALID,0,VALID,18.7293,VALID,134,VALID,0,
2013-08-21, 02:34:04,VALID,916.54,VALID,0,VALID,95.4909,VALID,0,VALID,18.7098,VALID,129,VALID,0,
2013-08-21, 02:35:04,VALID,916.517,VALID,0,VALID,95.4757,VALID,0,VALID,18.6889,VALID,130,VALID,0,
2013-08-21, 02:36:04,VALID,916.527,VALID,0,VALID,95.468,VALID,0,VALID,18.6903,VALID,125,VALID,0,
2013-08-21, 02:37:04,VALID,916.527,VALID,0,VALID,95.4528,VALID,0,VALID,18.6903,VALID,125,VALID,0,
2013-08-21, 02:38:04,VALID,916.503,VALID,0,VALID,95.4452,VALID,0,VALID,18.6903,VALID,129,VALID,0,
2013-08-21, 02:39:04,VALID,916.488,VALID,0,VALID,95.4452,VALID,0,VALID,18.6499,VALID,98,VALID,0,
2013-08-21, 02:40:04,VALID,916.496,VALID,0,VALID,95.4299,VALID,0,VALID,18.6708,VALID,114,VALID,0,
2013-08-21, 02:41:04,VALID,916.471,VALID,0,VALID,95.4375,VALID,0,VALID,18.6304,VALID,124,VALID,0,
2013-08-21, 02:42:04,VALID,916.485,VALID,0,VALID,95.4147,VALID,0,VALID,18.6513,VALID,122,VALID,0,
2013-08-21, 02:43:04,VALID,916.447,VALID,0,VALID,95.4299,VALID,0,VALID,18.6319,VALID,113,VALID,0,
2013-08-21, 02:44:04,VALID,916.428,VALID,0,VALID,95.4299,VALID,0,VALID,18.6319,VALID,125,VALID,0,
2013-08-21, 02:45:04,VALID,916.42,VALID,0,VALID,95.4147,VALID,0,VALID,18.5929,VALID,127,VALID,0,
2013-08-21, 02:46:04,VALID,916.406,VALID,0,VALID,95.4223,VALID,0,VALID,18.5734,VALID,128,VALID,0,
2013-08-21, 02:47:04,VALID,916.385,VALID,0,VALID,95.4452,VALID,0,VALID,18.5539,VALID,112,VALID,0,
2013-08-21, 02:48:04,VALID,916.348,VALID,0,VALID,95.4452,VALID,0,VALID,18.533,VALID,121,VALID,0,
2013-08-21, 02:49:04,VALID,916.332,VALID,0,VALID,95.4985,VALID,0,VALID,18.5539,VALID,118,VALID,0,
2013-08-21, 02:50:04,VALID,916.316,VALID,0,VALID,95.5138,VALID,0,VALID,18.5344,VALID,117,VALID,0,
2013-08-21, 02:51:04,VALID,916.27,VALID,0,VALID,95.5138,VALID,0,VALID,18.5149,VALID,123,VALID,0,
2013-08-21, 02:52:04,VALID,916.285,VALID,0,VALID,95.5367,VALID,0,VALID,18.4745,VALID,126,VALID,0,
2013-08-21, 02:53:04,VALID,916.288,VALID,0,VALID,95.5595,VALID,0,VALID,18.5163,VALID,118,VALID,0,
2013-08-21, 02:54:04,VALID,916.262,VALID,0,VALID,95.5976,VALID,0,VALID,18.4954,VALID,124,VALID,0,
2013-08-21, 02:55:04,VALID,916.228,VALID,0,VALID,95.6053,VALID,0,VALID,18.4954,VALID,140,VALID,0,
2013-08-21, 02:56:04,VALID,916.23,VALID,0,VALID,95.6205,VALID,0,VALID,18.5149,VALID,133,VALID,0,
2013-08-21, 02:57:04,VALID,916.195,VALID,0,VALID,95.6662,VALID,0,VALID,18.5553,VALID,127,VALID,0,
2013-08-21, 02:58:04,VALID,916.172,VALID,0,VALID,95.6662,VALID,0,VALID,18.5734,VALID,136,VALID,0,
2013-08-21, 02:59:04,VALID,916.169,VALID,0,VALID,95.6434,VALID,0,VALID,18.5929,VALID,140,VALID,0,
2013-08-21, 03:00:04,VALID,916.135,VALID,0,VALID,95.59,VALID,0,VALID,18.5929,VALID,138,VALID,0,
2013-08-21, 03:01:04,VALID,916.119,VALID,0,VALID,95.5595,VALID,0,VALID,18.5914,VALID,123,VALID,0,
2013-08-21, 03:02:04,VALID,916.097,VALID,0,VALID,95.5367,VALID,0,VALID,18.572,VALID,129,VALID,0,
2013-08-21, 03:03:04,VALID,916.095,VALID,0,VALID,95.4985,VALID,0,VALID,18.6124,VALID,187,VALID,0,
2013-08-21, 03:04:04,VALID,916.065,VALID,0,VALID,95.4833,VALID,0,VALID,18.6124,VALID,142,VALID,0,
2013-08-21, 03:05:04,VALID,916.063,VALID,0,VALID,95.4909,VALID,0,VALID,18.6319,VALID,148,VALID,0,
2013-08-21, 03:06:04,VALID,916.065,VALID,0,VALID,95.4757,VALID,0,VALID,18.6304,VALID,147,VALID,0,
2013-08-21, 03:07:04,VALID,916.056,VALID,0,VALID,95.4299,VALID,0,VALID,18.6319,VALID,142,VALID,0,
2013-08-21, 03:08:04,VALID,916.063,VALID,0,VALID,95.3918,VALID,0,VALID,18.6319,VALID,128,VALID,0,
2013-08-21, 03:09:04,VALID,916.059,VALID,0,VALID,95.3461,VALID,0,VALID,18.6124,VALID,132,VALID,0,
2013-08-21, 03:10:04,VALID,916.055,VALID,0,VALID,95.3079,VALID,0,VALID,18.6124,VALID,140,VALID,0,
2013-08-21, 03:11:04,VALID,916.041,VALID,0,VALID,95.3308,VALID,0,VALID,18.6124,VALID,128,VALID,0,
2013-08-21, 03:12:04,VALID,916.026,VALID,0,VALID,95.3232,VALID,0,VALID,18.5929,VALID,115,VALID,0,
2013-08-21, 03:13:04,VALID,916.042,VALID,0,VALID,95.2927,VALID,0,VALID,18.5734,VALID,141,VALID,0,
2013-08-21, 03:14:04,VALID,916.037,VALID,0,VALID,95.2927,VALID,0,VALID,18.5734,VALID,111,VALID,0,
2013-08-21, 03:15:04,VALID,916.019,VALID,0,VALID,95.3003,VALID,0,VALID,18.5539,VALID,141,VALID,0,
2013-08-21, 03:16:04,VALID,916.03,VALID,0,VALID,95.3461,VALID,0,VALID,18.5539,VALID,153,VALID,0,
2013-08-21, 03:17:04,VALID,915.999,VALID,0,VALID,95.4375,VALID,0,VALID,18.5734,VALID,142,VALID,0,
2013-08-21, 03:18:04,VALID,916.017,VALID,0,VALID,95.4071,VALID,0,VALID,18.5943,VALID,134,VALID,0,
2013-08-21, 03:19:04,VALID,915.967,VALID,0,VALID,95.4147,VALID,0,VALID,18.5943,VALID,188,VALID,0,
2013-08-21, 03:20:04,VALID,916.006,VALID,0,VALID,95.3994,VALID,0,VALID,18.5943,VALID,148,VALID,0,
2013-08-21, 03:21:04,VALID,915.974,VALID,0,VALID,95.4071,VALID,0,VALID,18.5734,VALID,120,VALID,0,
2013-08-21, 03:22:04,VALID,915.952,VALID,0,VALID,95.3994,VALID,0,VALID,18.5734,VALID,152,VALID,0,
2013-08-21, 03:23:04,VALID,915.934,VALID,0,VALID,95.3994,VALID,0,VALID,18.5734,VALID,152,VALID,0,
2013-08-21, 03:24:04,VALID,915.926,VALID,0,VALID,95.4147,VALID,0,VALID,18.5734,VALID,166,VALID,0,
2013-08-21, 03:25:04,VALID,915.92,VALID,0,VALID,95.4147,VALID,0,VALID,18.5748,VALID,142,VALID,0,
2013-08-21, 03:26:04,VALID,915.914,VALID,0,VALID,95.4452,VALID,0,VALID,18.5539,VALID,150,VALID,0,
2013-08-21, 03:27:04,VALID,915.914,VALID,0,VALID,95.4757,VALID,0,VALID,18.5748,VALID,141,VALID,0,
2013-08-21, 03:28:04,VALID,915.908,VALID,0,VALID,95.5062,VALID,0,VALID,18.5734,VALID,138,VALID,0,
2013-08-21, 03:29:04,VALID,915.905,VALID,0,VALID,95.5367,VALID,0,VALID,18.5929,VALID,134,VALID,0,
2013-08-21, 03:30:04,VALID,915.891,VALID,0,VALID,95.5138,VALID,0,VALID,18.5929,VALID,113,VALID,0,
2013-08-21, 03:31:04,VALID,915.899,VALID,0,VALID,95.5443,VALID,0,VALID,18.6124,VALID,146,VALID,0,
2013-08-21, 03:32:04,VALID,915.91,VALID,0,VALID,95.5443,VALID,0,VALID,18.6319,VALID,140,VALID,0,
2013-08-21, 03:33:04,VALID,915.882,VALID,0,VALID,95.5367,VALID,0,VALID,18.6513,VALID,138,VALID,0,
2013-08-21, 03:34:04,VALID,915.887,VALID,0,VALID,95.529,VALID,0,VALID,18.6903,VALID,126,VALID,0,
2013-08-21, 03:35:04,VALID,915.903,VALID,0,VALID,95.4375,VALID,0,VALID,18.7098,VALID,126,VALID,0,
2013-08-21, 03:36:04,VALID,915.894,VALID,0,VALID,95.3766,VALID,0,VALID,18.7293,VALID,188,VALID,0,
2013-08-21, 03:37:04,VALID,915.924,VALID,0,VALID,95.3079,VALID,0,VALID,18.7293,VALID,143,VALID,0,
2013-08-21, 03:38:04,VALID,915.928,VALID,0,VALID,95.2851,VALID,0,VALID,18.7293,VALID,162,VALID,0,
2013-08-21, 03:39:04,VALID,915.945,VALID,0,VALID,95.2241,VALID,0,VALID,18.7098,VALID,165,VALID,0,
2013-08-21, 03:40:04,VALID,915.914,VALID,0,VALID,95.2012,VALID,0,VALID,18.7308,VALID,164,VALID,0,
2013-08-21, 03:41:04,VALID,915.935,VALID,0,VALID,95.2012,VALID,0,VALID,18.6903,VALID,174,VALID,0,
2013-08-21, 03:42:04,VALID,915.91,VALID,0,VALID,95.1936,VALID,0,VALID,18.7098,VALID,145,VALID,0,
2013-08-21, 03:43:04,VALID,915.938,VALID,0,VALID,95.186,VALID,0,VALID,18.6903,VALID,162,VALID,0,
2013-08-21, 03:44:04,VALID,915.93,VALID,0,VALID,95.1783,VALID,0,VALID,18.7308,VALID,149,VALID,0,
2013-08-21, 03:45:04,VALID,915.948,VALID,0,VALID,95.1936,VALID,0,VALID,18.6903,VALID,132,VALID,0,
2013-08-21, 03:46:04,VALID,915.927,VALID,0,VALID,95.186,VALID,0,VALID,18.6903,VALID,162,VALID,0,
2013-08-21, 03:47:04,VALID,915.937,VALID,0,VALID,95.1783,VALID,0,VALID,18.6903,VALID,167,VALID,0,
2013-08-21, 03:48:04,VALID,915.922,VALID,0,VALID,95.1783,VALID,0,VALID,18.6903,VALID,127,VALID,0,
2013-08-21, 03:49:04,VALID,915.873,VALID,0,VALID,95.1707,VALID,0,VALID,18.6903,VALID,184,VALID,0,
2013-08-21, 03:50:04,VALID,915.909,VALID,0,VALID,95.125,VALID,0,VALID,18.6903,VALID,179,VALID,0,
2013-08-21, 03:51:04,VALID,915.847,VALID,0,VALID,95.1097,VALID,0,VALID,18.6708,VALID,178,VALID,0,
2013-08-21, 03:52:04,VALID,915.874,VALID,0,VALID,95.1097,VALID,0,VALID,18.6513,VALID,173,VALID,0,
2013-08-21, 03:53:04,VALID,915.855,VALID,0,VALID,95.1174,VALID,0,VALID,18.6694,VALID,159,VALID,0,
2013-08-21, 03:54:04,VALID,915.847,VALID,0,VALID,95.1479,VALID,0.107441,VALID,18.6708,VALID,172,VALID,0,
2013-08-21, 03:55:04,VALID,915.839,VALID,0,VALID,95.1783,VALID,0,VALID,18.6304,VALID,163,VALID,0,
2013-08-21, 03:56:04,VALID,915.86,VALID,0,VALID,95.1555,VALID,0.107441,VALID,18.6109,VALID,160,VALID,0,
2013-08-21, 03:57:04,VALID,915.875,VALID,0,VALID,95.186,VALID,0,VALID,18.6319,VALID,148,VALID,0,
2013-08-21, 03:58:04,VALID,915.885,VALID,0,VALID,95.2165,VALID,0.107441,VALID,18.6499,VALID,166,VALID,0,